PulseSat

PulseSat

COSMOS 2434 (721)

Last updated on March 22, 2019, 3:12 a.m. UTC

1 32393U 07065A   19080.56021775  .00000018  00000-0  00000+0 0  9997
2 32393  64.7619 281.9964 0005508  89.6181  93.5653  2.13102816 87443
UTC
Height (km)
Latitude
Longitude
Inclination
Orbital Period

Next 30 passes for location: Hong Kong

Rise time Rise Azimuth (degrees) Set time Set Azimuth (degrees) Duration Max altitude (degrees)

No matching passes for this satellites

PulseSat

PulseSat is the new satellites software and hardware trackering solution by Pulsely.
Satellite Two Line Element Set source: US Air Force Space Command

Download PulseSat for iOS
© 2017 Pulsely Limited